カタログに戻る

STARLINK-35732

運用中通信VLEO
NORAD 67037·PAYLOAD·🇺🇸 United States

打ち上げ Dec 11, 2025 から Cape Canaveral Space Force Station

Loading…

次のパス (今後24時間)

TLE

最新Source: CelesTrak SupGP

元期: Sep 15, 2026, 03:41 UTC

1 67037C 25294H   26258.15395833 -.00022077  00000+0 -79955-3 0  2580
2 67037  43.0023  48.3213 0002066 270.6448  47.9687 15.27591397    14

AllMySatでSTARLINK-35732をリアルタイム追跡

Download on the App Store